[[{"header":{"parameterUnit":"m.s-1","parameterCategory":2,"la1":30.2991,"la2":30.254,"lo1":-89.0895,"lo2":-89.0444,"dy":0.0017,"dx":0.0017,"nx":28,"ny":28,"refTime":"2025-07-22T09:00:00:Z","depth":"0","parameterNumber":2,"parameterNumberName":"U-component_of_CURRENTS"},"data":[0,0,0,0,0,0,0,0,0,0,0,0,0,0,0,0,0,0,0,0,0,0,0,0,0,0,0,0,0,0,0,0,0,0,0,0,0,0,0,0,0,0,0,0,0,0,0,0,0,0,0,0,0,0,0,0,0,0,0.1788,0.1788,0,0.1773,0.1773,0.1773,0.1749,0.1749,0.1749,0.1748,0.1785,0.1786,0.1788,0,0,0,0,0,0,0,0,0,0,0,0,0,0.1863,0.1861,0.1788,0.1788,0.1788,0.1773,0.1773,0.1773,0.1749,0.1749,0.1748,0.1748,0.1785,0.1786,0.1788,0,0,0,0,0,0,0,0,0,0,0,0,0,0.1836,0.186,0.1788,0.1775,0.1774,0.1773,0.1773,0.1772,0.1749,0.1749,0.1748,0.1748,0.1784,0.1786,0.1788,0.1811,0,0,0.1794,0.1795,0,0,0,0,0,0,0,0,0.1838,0.1834,0.1777,0.1776,0.1774,0.1763,0.1813,0.1788,0.1749,0.1758,0.1748,0.1748,0.1784,0.1785,0.1782,0.1813,0.1814,0.1794,0.1795,0.1796,0.1797,0,0,0,0,0,0,0,0.184,0.1835,0.1781,0.1777,0.1775,0.1793,0.1788,0.1808,0.1774,0.1757,0.1755,0.1755,0.1783,0.178,0.1783,0.1815,0.1794,0.1796,0.1797,0.1798,0.194,0.1943,0,0,0,0,0,0,0.184,0.1836,0.1782,0.1781,0.1806,0.1792,0.1786,0.1767,0.1773,0.1773,0.1756,0.1754,0.1777,0.1781,0.1784,0.1857,0.1796,0.1798,0.1799,0.1938,0.1941,0.1943,0,0,0,0,0,0,0.1841,0.1834,0.1782,0.181,0.1805,0.179,0.1769,0.1767,0.1768,0.1771,0.1772,0.176,0.1777,0.1781,0.1822,0.1857,0.1799,0.1801,0.1934,0.1938,0.1942,0.1974,0,0,0,0,0,0,0.1843,0.1834,0.1825,0.1809,0.1803,0.1792,0.177,0.1767,0.1768,0.1766,0.1776,0.1778,0.1777,0.1819,0.1824,0.1858,0.1802,0.1931,0.1936,0.1941,0.197,0.1979,0.1986,0,0,0,0,0,0.1845,0.1842,0.1824,0.1819,0.1788,0.1793,0.1792,0.178,0.1769,0.1777,0.1791,0.1778,0.1854,0.1823,0.1828,0.1863,0.1929,0.1935,0.194,0.1966,0.1977,0.1986,0,0,0,0,0,0,0.1867,0.1839,0.1819,0.1805,0.1801,0.1789,0.1797,0.1787,0.1801,0.1803,0.1802,0.1807,0.1862,0.1864,0.1829,0.1924,0.1893,0.19,0.1911,0.1921,0.1929,0.1925,0.1804,0,0,0,0,0,0.1866,0.1856,0.1835,0.1825,0.1825,0.1811,0.1812,0.1804,0.1811,0.1815,0.1822,0.1848,0.1891,0.1904,0.1937,0.1978,0.198,0.2011,0.2019,0.2025,0.2029,0.2099,0.2113,0.1963,0.1963,0.1962,0,0,0.1872,0.1855,0.1849,0.183,0.1825,0.1833,0.181,0.1817,0.1831,0.1821,0.1851,0.1878,0.1912,0.1965,0.199,0.1967,0.2062,0.2033,0.2038,0.2038,0.2106,0.2121,0.2133,0.1967,0.1966,0.1965,0,0,0.1887,0.1864,0.1863,0.1865,0.186,0.1857,0.1861,0.1856,0.1861,0.1892,0.1904,0.1953,0.1991,0.203,0.2054,0.2131,0.211,0.2143,0.2169,0.2237,0.2249,0.226,0.2238,0.2247,0.2138,0.2139,0.2139,0,0.1896,0.1878,0.1869,0.1874,0.1876,0.187,0.1877,0.1893,0.1903,0.192,0.191,0.2003,0.2028,0.2109,0.2137,0.2148,0.2152,0.2121,0.2245,0.2257,0.2267,0.2243,0.2252,0.2141,0.2141,0.214,0.214,0,0.1914,0.1899,0.1906,0.1904,0.1913,0.192,0.1934,0.1955,0.196,0.1973,0.2044,0.2084,0.2134,0.2163,0.217,0.2266,0.2229,0.2251,0.2211,0.2284,0.2253,0.2262,0.2144,0.2143,0.2143,0.2142,0,0,0.1919,0.1916,0.1915,0.191,0.1923,0.1931,0.1972,0.2001,0.2033,0.2064,0.2108,0.2194,0.2205,0.2236,0.2261,0.232,0.2385,0.2312,0.2315,0.2272,0.2472,0.2205,0.2189,0.2431,0.2434,0.2436,0.2402,0,0.1926,0.1929,0.1933,0.1945,0.1942,0.1962,0.2001,0.2036,0.207,0.2119,0.2176,0.2231,0.2237,0.2262,0.2328,0.2379,0.2418,0.2388,0.2424,0.2424,0.2165,0.2195,0.2043,0.198,0.2411,0.2413,0.2414,0,0.1928,0.1927,0.1929,0.1943,0.1949,0.197,0.2022,0.2057,0.2136,0.2163,0.2227,0.2261,0.234,0.2345,0.2447,0.2424,0.2452,0.2483,0.2483,0.2232,0.2175,0.199,0.198,0.1908,0.2427,0.2426,0.2425,0,0.1907,0.1919,0.1915,0.1921,0.195,0.197,0.1997,0.2068,0.2106,0.2187,0.2218,0.2309,0.2344,0.2423,0.2435,0.2465,0.2518,0.2571,0.2352,0.233,0.2203,0.2163,0.2113,0.2661,0.2661,0.2661,0.2661,0,0.1889,0.1888,0.1907,0.1904,0.193,0.1955,0.2004,0.2048,0.2121,0.2176,0.2233,0.228,0.2376,0.2398,0.2438,0.2359,0.2511,0.234,0.2314,0.22,0.2163,0.2093,0.2093,0.266,0.266,0.2661,0.2661,0,0.1855,0.1861,0.1866,0.1898,0.1912,0.1932,0.1993,0.2042,0.2096,0.2169,0.2189,0.2264,0.2262,0.228,0.2368,0.2311,0.22,0.2245,0.2032,0.1978,0.1666,0.1673,0.1555,0.1529,0.2007,0.2,0.1995,0,0.1839,0.1833,0.186,0.1877,0.189,0.1926,0.1965,0.2024,0.2076,0.2156,0.2192,0.2188,0.2175,0.2095,0.1994,0.1911,0.1961,0.1705,0.1741,0.1591,0.1587,0.1606,0.16,0.1592,0.1584,0.1577,0.1572,0,0.1823,0.183,0.1839,0.1868,0.19,0.194,0.1992,0.2021,0.2097,0.213,0.2154,0.2134,0.198,0.1778,0.1576,0.1539,0.1559,0.1551,0.1524,0.1327,0.1232,0.121,0.162,0.151,0.1516,0.1521,0.1524,0.1526,0.1826,0.1824,0.184,0.1865,0.1904,0.1948,0.1952,0.2002,0.2038,0.2021,0.2072,0.1919,0.1639,0.1316,0.1244,0.0923,0.1104,0.0885,0.0925,0.0973,0.0876,0.1052,0.0823,0.0825,0.0827,0.0828,0.083,0,0.1824,0.1819,0.1845,0.186,0.1883,0.1917,0.1965,0.1936,0.1924,0.1857,0.1808,0.1422,0.1122,0.0869,0.0471,0.0342,0.0436,0.0319,0.0412,0.0463,0.0724,0.063,0.0193,0.0193,0.0193,0.0193,0.0193,0.0193,0.182,0.182,0.1817,0.1831,0.1842,0.1828,0.1832,0.1784,0.1708,0.1449,0.1173,0.1025,0.0682,0.0265,-0.0029,-0.0041,0.0035,-0.0068,0.0058,0.0311,0.0372,0.043,0.0343,-0.0147,-0.0148,-0.021,-0.0211,-0.0212]},{"header":{"parameterUnit":"m.s-1","parameterCategory":2,"la1":30.2991,"la2":30.254,"lo1":-89.0895,"lo2":-89.0444,"dy":0.0017,"dx":0.0017,"nx":28,"ny":28,"refTime":"2025-07-22T09:00:00:Z","depth":"0","parameterNumber":3,"parameterNumberName":"V-component_of_CURRENTS"},"data":[0,0,0,0,0,0,0,0,0,0,0,0,0,0,0,0,0,0,0,0,0,0,0,0,0,0,0,0,0,0,0,0,0,0,0,0,0,0,0,0,0,0,0,0,0,0,0,0,0,0,0,0,0,0,0,0,0,0,0.0146,0.0146,0,0.0184,0.0185,0.0185,0.019,0.019,0.019,0.0189,0.0183,0.0183,0.0183,0,0,0,0,0,0,0,0,0,0,0,0,0,0.0092,0.0093,0.0146,0.0146,0.0147,0.0184,0.0185,0.0185,0.019,0.019,0.019,0.0189,0.0183,0.0183,0.0183,0,0,0,0,0,0,0,0,0,0,0,0,0,0.0121,0.0094,0.0145,0.0154,0.0155,0.0184,0.0185,0.0185,0.0191,0.019,0.019,0.0189,0.0183,0.0183,0.0183,0.0195,0,0,0.0184,0.0184,0,0,0,0,0,0,0,0,0.012,0.0123,0.0152,0.0153,0.0155,0.0182,0.0164,0.0186,0.0191,0.0177,0.0189,0.0189,0.0179,0.018,0.0188,0.0195,0.0194,0.0184,0.0184,0.0184,0.0184,0,0,0,0,0,0,0,0.0118,0.0122,0.0161,0.0153,0.0154,0.0161,0.0165,0.0168,0.0179,0.0178,0.0179,0.0183,0.0179,0.0188,0.0188,0.0194,0.0184,0.0184,0.0184,0.0185,0.0206,0.0206,0,0,0,0,0,0,0.0113,0.012,0.0159,0.0162,0.0136,0.0163,0.0166,0.0174,0.018,0.0181,0.0184,0.0184,0.0188,0.0188,0.0188,0.0197,0.0184,0.0185,0.0185,0.0205,0.0206,0.0206,0,0,0,0,0,0,0.0112,0.0117,0.0158,0.0142,0.0147,0.0164,0.0172,0.0175,0.0183,0.0185,0.0185,0.0189,0.0188,0.0188,0.0189,0.0197,0.0185,0.0185,0.0205,0.0205,0.0206,0.0219,0,0,0,0,0,0,0.0111,0.0116,0.012,0.0142,0.0148,0.0175,0.0173,0.0176,0.0187,0.0187,0.019,0.0189,0.0187,0.0189,0.0189,0.0197,0.0185,0.0204,0.0205,0.0206,0.0218,0.022,0.0221,0,0,0,0,0,0.0109,0.0117,0.012,0.0125,0.0153,0.0175,0.018,0.0189,0.0188,0.0194,0.0193,0.0189,0.0194,0.0189,0.019,0.0198,0.0204,0.0205,0.0206,0.0217,0.0219,0.0221,0,0,0,0,0,0,0.0097,0.0119,0.0123,0.0137,0.0154,0.0176,0.0185,0.0191,0.0197,0.0195,0.0193,0.0192,0.0198,0.0197,0.0191,0.0207,0.0199,0.02,0.0207,0.021,0.0211,0.0228,0.0185,0,0,0,0,0,0.0097,0.0107,0.0129,0.014,0.0149,0.0167,0.0177,0.0184,0.0194,0.0197,0.0199,0.0201,0.0204,0.0205,0.0208,0.0216,0.0245,0.0222,0.0224,0.0225,0.0239,0.0316,0.0327,0.021,0.021,0.021,0,0,0.0095,0.0109,0.0114,0.0138,0.0152,0.017,0.0172,0.0189,0.02,0.0194,0.0206,0.0207,0.0208,0.0216,0.0219,0.0215,0.0266,0.0226,0.0228,0.0241,0.0319,0.0331,0.0341,0.021,0.021,0.021,0,0,0.0102,0.011,0.0123,0.0139,0.0161,0.0172,0.0177,0.0199,0.0204,0.0217,0.0215,0.0226,0.0227,0.0237,0.0239,0.0256,0.0274,0.0248,0.027,0.0345,0.0356,0.0366,0.0387,0.04,0.0249,0.0249,0.0249,0,0.0099,0.012,0.013,0.0149,0.0162,0.0173,0.0191,0.0201,0.022,0.0228,0.022,0.0251,0.0243,0.027,0.0267,0.0262,0.0292,0.026,0.035,0.036,0.0371,0.0391,0.0404,0.0249,0.0249,0.0249,0.0249,0,0.0119,0.0136,0.0145,0.0171,0.0184,0.0202,0.0217,0.0227,0.0232,0.0246,0.0274,0.028,0.0302,0.0296,0.0281,0.0341,0.0333,0.0345,0.0347,0.0384,0.0401,0.0415,0.025,0.025,0.025,0.025,0,0,0.0118,0.0152,0.0157,0.0172,0.0197,0.0212,0.0226,0.0249,0.027,0.0287,0.0331,0.0329,0.0344,0.0348,0.0345,0.0398,0.047,0.0397,0.04,0.0422,0.0607,0.0559,0.0568,0.0507,0.0511,0.0513,0.0579,0,0.0133,0.0168,0.018,0.021,0.023,0.024,0.0255,0.0274,0.0293,0.0336,0.0358,0.0394,0.036,0.038,0.0427,0.0474,0.0512,0.0449,0.0565,0.0567,0.0526,0.0586,0.058,0.0636,0.0592,0.0595,0.0596,0,0.0151,0.0173,0.0205,0.0235,0.0245,0.026,0.0292,0.0309,0.0357,0.0376,0.0421,0.0447,0.0509,0.049,0.0593,0.0558,0.0578,0.0608,0.0612,0.058,0.0547,0.0599,0.0663,0.0687,0.0617,0.0616,0.0614,0,0.0153,0.019,0.0215,0.0227,0.0262,0.0273,0.0287,0.0322,0.0349,0.0416,0.0462,0.0529,0.0592,0.0646,0.0676,0.0655,0.0798,0.078,0.0747,0.0742,0.0766,0.0758,0.0877,0.086,0.086,0.086,0.086,0,0.0168,0.0188,0.0218,0.0235,0.0265,0.028,0.032,0.0339,0.0398,0.0458,0.0489,0.057,0.0645,0.072,0.0726,0.0779,0.0838,0.0769,0.0776,0.0763,0.0754,0.0797,0.0808,0.0862,0.0862,0.0861,0.0861,0,0.0171,0.0191,0.0224,0.0259,0.027,0.0291,0.0338,0.0373,0.0416,0.0507,0.0538,0.064,0.0739,0.0774,0.0879,0.0851,0.0914,0.0886,0.0832,0.0831,0.0803,0.0814,0.0939,0.0975,0.0877,0.0877,0.0876,0,0.0177,0.0195,0.024,0.0263,0.028,0.0313,0.0341,0.038,0.0425,0.0554,0.061,0.0728,0.0822,0.0923,0.0911,0.0919,0.0931,0.0886,0.0843,0.0821,0.084,0.0843,0.0865,0.0868,0.0867,0.0867,0.0867,0,0.0191,0.0207,0.0237,0.0278,0.0311,0.0354,0.0398,0.0439,0.0507,0.0595,0.0735,0.0827,0.0913,0.0957,0.0934,0.092,0.0915,0.0876,0.091,0.0894,0.0857,0.0887,0.0762,0.0864,0.0864,0.0864,0.0864,0.0864,0.0203,0.0223,0.026,0.0297,0.034,0.0394,0.0437,0.0507,0.0598,0.0744,0.0815,0.0948,0.0978,0.0966,0.0953,0.0888,0.0906,0.0864,0.089,0.0904,0.0917,0.0744,0.0814,0.0814,0.0814,0.0814,0.0814,0,0.0216,0.0237,0.0274,0.0327,0.0375,0.0394,0.0477,0.0541,0.0664,0.0799,0.0926,0.0986,0.1016,0.0996,0.0918,0.0909,0.0923,0.091,0.0946,0.0979,0.0886,0.086,0.0875,0.0875,0.0875,0.0875,0.0875,0.0875,0.0226,0.0254,0.0268,0.0341,0.0384,0.0458,0.0511,0.0629,0.0731,0.0889,0.0952,0.1005,0.0972,0.0976,0.0967,0.0967,0.1034,0.1001,0.1053,0.0996,0.0995,0.0993,0.0973,0.1012,0.1012,0.1146,0.1148,0.1148]}],[{"header":{"parameterUnit":"m.s-1","parameterCategory":2,"la1":30.2991,"la2":30.254,"lo1":-89.0895,"lo2":-89.0444,"dy":0.0017,"dx":0.0017,"nx":28,"ny":28,"refTime":"2025-07-22T09:00:00:Z","depth":"2","parameterNumber":2,"parameterNumberName":"U-component_of_CURRENTS"},"data":[0,0,0,0,0,0,0,0,0,0,0,0,0,0,0,0,0,0,0,0,0,0,0,0,0,0,0,0,0,0,0,0,0,0,0,0,0,0,0,0,0,0,0,0,0,0,0,0,0,0,0,0,0,0,0,0,0,0,0.1116,0.1116,0,0.111,0.111,0.111,0.1118,0.1118,0.1119,0.1119,0.1133,0.1133,0.1133,0,0,0,0,0,0,0,0,0,0,0,0,0,0.1129,0.1129,0.1116,0.1116,0.1116,0.111,0.111,0.111,0.1118,0.1118,0.1119,0.1119,0.1133,0.1133,0.1133,0,0,0,0,0,0,0,0,0,0,0,0,0,0.1123,0.1129,0.1116,0.1119,0.112,0.111,0.111,0.111,0.1118,0.1118,0.1119,0.1119,0.1133,0.1133,0.1133,0.1123,0,0,0.1133,0.1133,0,0,0,0,0,0,0,0,0.1123,0.1122,0.1119,0.1119,0.1119,0.1116,0.112,0.1116,0.1118,0.1118,0.1119,0.1119,0.1129,0.1129,0.1126,0.1124,0.1124,0.1133,0.1133,0.1133,0.1133,0,0,0,0,0,0,0,0.1124,0.1123,0.1113,0.1119,0.1119,0.112,0.112,0.1119,0.112,0.1118,0.1119,0.1119,0.1129,0.1126,0.1126,0.1125,0.1133,0.1133,0.1133,0.1133,0.1183,0.1185,0,0,0,0,0,0,0.1125,0.1123,0.1113,0.1113,0.1123,0.1119,0.1119,0.1116,0.112,0.1121,0.1118,0.1119,0.1125,0.1126,0.1127,0.1173,0.1133,0.1133,0.1133,0.1182,0.1184,0.1185,0,0,0,0,0,0,0.1125,0.1124,0.1113,0.1118,0.1117,0.1119,0.1115,0.1116,0.1121,0.112,0.1122,0.1125,0.1126,0.1127,0.1148,0.1171,0.1133,0.1133,0.1181,0.1183,0.1184,0.1227,0,0,0,0,0,0,0.1126,0.1124,0.113,0.1118,0.1117,0.1117,0.1115,0.1115,0.112,0.1121,0.1126,0.1127,0.1126,0.1148,0.1148,0.1171,0.1133,0.1179,0.1182,0.1184,0.1224,0.1231,0.1236,0,0,0,0,0,0.1126,0.113,0.113,0.1129,0.1122,0.1118,0.1117,0.1119,0.112,0.1125,0.1138,0.1128,0.1163,0.1149,0.1149,0.1172,0.1178,0.1181,0.1184,0.1222,0.1229,0.1236,0,0,0,0,0,0,0.114,0.1131,0.1131,0.1132,0.113,0.1119,0.1123,0.1123,0.1134,0.1142,0.1139,0.1141,0.1168,0.1165,0.1149,0.1195,0.1171,0.1174,0.12,0.1207,0.1213,0.1226,0.1134,0,0,0,0,0,0.1144,0.1142,0.1137,0.1137,0.1137,0.113,0.1131,0.1135,0.1139,0.1144,0.115,0.1163,0.1177,0.1188,0.1195,0.1217,0.1216,0.1235,0.1241,0.1245,0.1257,0.1338,0.1353,0.1195,0.1195,0.1194,0,0,0.1149,0.1143,0.1143,0.114,0.1135,0.1137,0.1132,0.1137,0.1142,0.1144,0.1161,0.1178,0.1186,0.1215,0.1228,0.1218,0.1269,0.1249,0.1253,0.1263,0.1343,0.1359,0.1372,0.1197,0.1196,0.1196,0,0,0.1151,0.1151,0.1152,0.1151,0.1152,0.1149,0.1153,0.1155,0.116,0.118,0.1188,0.1229,0.1235,0.1262,0.1271,0.1313,0.1295,0.1311,0.1356,0.1434,0.1448,0.1461,0.1391,0.1397,0.1319,0.1319,0.1319,0,0.1161,0.1155,0.1152,0.1153,0.1153,0.1155,0.1158,0.1162,0.1175,0.1194,0.1193,0.1252,0.1261,0.1311,0.1334,0.1327,0.1325,0.1326,0.1443,0.1456,0.1469,0.1395,0.1401,0.1322,0.1321,0.1321,0.1321,0,0.1158,0.1162,0.116,0.116,0.1163,0.1165,0.117,0.1197,0.1209,0.1218,0.1272,0.1301,0.1345,0.1355,0.1358,0.1448,0.1394,0.1437,0.1427,0.1487,0.1403,0.141,0.1325,0.1324,0.1324,0.1323,0,0,0.1158,0.1159,0.1159,0.1164,0.1167,0.117,0.1196,0.122,0.1247,0.1282,0.1335,0.1376,0.1408,0.1423,0.1442,0.1514,0.157,0.1521,0.1524,0.1449,0.1646,0.146,0.1446,0.1656,0.1659,0.1662,0.152,0,0.1156,0.1155,0.1158,0.1167,0.1167,0.1192,0.1203,0.1235,0.1269,0.1327,0.1383,0.1426,0.1422,0.1463,0.1538,0.1573,0.1604,0.1598,0.1601,0.1597,0.1428,0.1456,0.1354,0.1211,0.1526,0.1527,0.1527,0,0.1147,0.1149,0.1149,0.1167,0.1169,0.1183,0.1231,0.1244,0.1322,0.1359,0.144,0.1474,0.1554,0.1576,0.1639,0.164,0.1649,0.1667,0.1664,0.1491,0.1427,0.122,0.121,0.1537,0.1536,0.1536,0.1535,0,0.1134,0.1144,0.1141,0.1145,0.1164,0.1194,0.1211,0.1264,0.1286,0.1397,0.1445,0.1527,0.1566,0.1642,0.1643,0.1669,0.1703,0.1737,0.155,0.153,0.1441,0.1409,0.1811,0.1811,0.1811,0.1812,0.1812,0,0.1118,0.1128,0.1141,0.1148,0.1163,0.1177,0.1215,0.1263,0.1331,0.1369,0.1457,0.1498,0.1608,0.1629,0.1654,0.157,0.1694,0.1542,0.1512,0.1437,0.1408,0.1718,0.1709,0.1806,0.1807,0.1808,0.1809,0,0.1101,0.1107,0.1121,0.1147,0.1159,0.1171,0.1217,0.1247,0.1302,0.1375,0.1415,0.148,0.1473,0.1505,0.1574,0.152,0.151,0.1458,0.1272,0.1223,0.1263,0.1258,0.1218,0.1211,0.1205,0.12,0.1196,0,0.109,0.1087,0.1117,0.1126,0.1144,0.1168,0.1185,0.1243,0.1267,0.1343,0.1368,0.1384,0.1368,0.1298,0.1248,0.1172,0.1322,0.1012,0.1064,0.1243,0.1218,0.1223,0.1226,0.0919,0.0913,0.0908,0.0904,0,0.1081,0.109,0.1102,0.1105,0.1133,0.115,0.1177,0.1181,0.1239,0.1272,0.1262,0.1256,0.1164,0.1021,0.0901,0.0866,0.1016,0.0898,0.121,0.1075,0.0948,0.0927,0.0944,0.0859,0.0864,0.0867,0.0869,0.0871,0.1082,0.1079,0.1084,0.1084,0.1114,0.1108,0.1089,0.1099,0.1096,0.1082,0.1111,0.1031,0.0983,0.0712,0.0635,0.0548,0.0644,0.0627,0.0649,0.0676,0.0657,0.0528,0.0346,0.0348,0.0349,0.035,0.0351,0,0.1061,0.106,0.1059,0.1062,0.1055,0.1091,0.1064,0.1007,0.0953,0.0929,0.0881,0.0711,0.0554,0.0515,0.0305,0.0222,0.0299,0.0202,0.0347,0.0387,0.0425,0.0403,0.002,0.0019,0.0018,0.0018,0,0,0.1057,0.1042,0.1028,0.1002,0.1,0.0965,0.0927,0.0844,0.0774,0.0655,0.0576,0.0552,0.0511,0.0305,0.022,0.0102,0.0263,0.0067,0.033,0.0546,0.0584,0.0649,0.0655,0,0,0,0,0]},{"header":{"parameterUnit":"m.s-1","parameterCategory":2,"la1":30.2991,"la2":30.254,"lo1":-89.0895,"lo2":-89.0444,"dy":0.0017,"dx":0.0017,"nx":28,"ny":28,"refTime":"2025-07-22T09:00:00:Z","depth":"2","parameterNumber":3,"parameterNumberName":"V-component_of_CURRENTS"},"data":[0,0,0,0,0,0,0,0,0,0,0,0,0,0,0,0,0,0,0,0,0,0,0,0,0,0,0,0,0,0,0,0,0,0,0,0,0,0,0,0,0,0,0,0,0,0,0,0,0,0,0,0,0,0,0,0,0,0,0.0138,0.0138,0,0.0175,0.0175,0.0176,0.0181,0.0181,0.0181,0.018,0.0191,0.0191,0.0192,0,0,0,0,0,0,0,0,0,0,0,0,0,0.009,0.0091,0.0138,0.0138,0.0139,0.0175,0.0175,0.0176,0.0181,0.0181,0.0181,0.018,0.019,0.0191,0.0192,0,0,0,0,0,0,0,0,0,0,0,0,0,0.0117,0.0091,0.0138,0.0146,0.0147,0.0175,0.0175,0.0176,0.0181,0.0181,0.0181,0.018,0.019,0.0191,0.0192,0.0206,0,0,0.0194,0.0195,0,0,0,0,0,0,0,0,0.0115,0.0118,0.0144,0.0146,0.0147,0.0173,0.0162,0.0185,0.0182,0.0168,0.018,0.018,0.0183,0.0184,0.0192,0.0206,0.0207,0.0194,0.0195,0.0195,0.0195,0,0,0,0,0,0,0,0.0113,0.0117,0.0152,0.0145,0.0147,0.0154,0.0157,0.0167,0.0177,0.0169,0.017,0.0175,0.0183,0.0191,0.0192,0.0207,0.0194,0.0195,0.0196,0.0196,0.0223,0.0223,0,0,0,0,0,0,0.0109,0.0115,0.0151,0.0153,0.013,0.0155,0.0159,0.0165,0.0177,0.0179,0.0175,0.0175,0.019,0.0191,0.0193,0.0208,0.0195,0.0196,0.0196,0.0223,0.0223,0.0223,0,0,0,0,0,0,0.0108,0.0112,0.0149,0.0135,0.014,0.0157,0.0164,0.0166,0.0173,0.0182,0.0183,0.0179,0.019,0.0191,0.0199,0.0208,0.0196,0.0197,0.0222,0.0223,0.0223,0.0239,0,0,0,0,0,0,0.0106,0.0111,0.0114,0.0135,0.0141,0.0165,0.0164,0.0167,0.0177,0.0177,0.0186,0.0187,0.019,0.0197,0.0199,0.0209,0.0198,0.0222,0.0223,0.0223,0.0239,0.024,0.0242,0,0,0,0,0,0.0105,0.0112,0.0114,0.0118,0.0145,0.0165,0.0169,0.0179,0.0178,0.0183,0.0187,0.0186,0.0201,0.0198,0.0201,0.0211,0.0222,0.0223,0.0223,0.0238,0.024,0.0242,0,0,0,0,0,0,0.0095,0.0114,0.0117,0.013,0.0145,0.0166,0.0174,0.0179,0.0188,0.0187,0.0191,0.0192,0.0202,0.0203,0.0199,0.0219,0.0211,0.0212,0.0222,0.0224,0.0225,0.0239,0.0198,0,0,0,0,0,0.0094,0.0103,0.0122,0.0132,0.014,0.0157,0.0166,0.0173,0.0184,0.0188,0.0193,0.0199,0.0208,0.0212,0.0218,0.023,0.0246,0.0237,0.0239,0.024,0.0252,0.0304,0.0312,0.0225,0.0225,0.0225,0,0,0.0092,0.0104,0.0109,0.013,0.0144,0.0162,0.0161,0.0177,0.019,0.0188,0.0203,0.0205,0.0212,0.0225,0.0229,0.0226,0.0265,0.0241,0.0242,0.0253,0.0306,0.0314,0.0322,0.0225,0.0225,0.0225,0,0,0.01,0.0106,0.0119,0.0133,0.0153,0.0164,0.0168,0.0188,0.0194,0.0208,0.021,0.0222,0.0229,0.0243,0.0249,0.0264,0.0272,0.0258,0.0279,0.0329,0.0337,0.0344,0.0343,0.0351,0.0259,0.0259,0.0259,0,0.0097,0.0117,0.0125,0.0144,0.0157,0.0165,0.0184,0.0195,0.0212,0.0224,0.0213,0.0249,0.0244,0.028,0.0274,0.0271,0.0283,0.0271,0.0333,0.0341,0.0348,0.0346,0.0354,0.026,0.0259,0.0259,0.0259,0,0.0119,0.0134,0.0144,0.0168,0.0182,0.0199,0.0215,0.0224,0.0229,0.0245,0.0275,0.0281,0.0306,0.03,0.0287,0.0335,0.0319,0.033,0.0332,0.0358,0.0353,0.0361,0.0261,0.026,0.026,0.026,0,0,0.0119,0.0152,0.0156,0.0171,0.0196,0.0211,0.0229,0.0257,0.0282,0.0294,0.0339,0.0341,0.0351,0.0359,0.0356,0.0387,0.0424,0.0374,0.0376,0.0378,0.0503,0.0459,0.0463,0.0453,0.0455,0.0457,0.0467,0,0.0135,0.017,0.0183,0.0214,0.0234,0.0245,0.0268,0.0291,0.0309,0.0352,0.0372,0.0409,0.0373,0.039,0.0417,0.0436,0.0452,0.0418,0.0472,0.0473,0.0438,0.0475,0.0449,0.0455,0.0474,0.0476,0.0477,0,0.0156,0.0177,0.0209,0.0244,0.0255,0.0272,0.0313,0.0336,0.0388,0.0406,0.0447,0.0469,0.0511,0.0485,0.0533,0.0515,0.0503,0.051,0.0511,0.0478,0.0447,0.0438,0.0469,0.049,0.0489,0.0488,0.0487,0,0.0158,0.0196,0.0221,0.0233,0.0273,0.0287,0.0309,0.0353,0.0389,0.0451,0.0495,0.0542,0.0585,0.06,0.0586,0.0571,0.064,0.0626,0.0571,0.0566,0.0559,0.055,0.0663,0.0663,0.0663,0.0663,0.0663,0,0.0174,0.0194,0.0223,0.0239,0.0276,0.0298,0.0348,0.0373,0.0439,0.0509,0.0529,0.0595,0.0622,0.0656,0.0627,0.0622,0.0672,0.0585,0.0583,0.0557,0.0548,0.0597,0.0589,0.0663,0.0663,0.0663,0.0663,0,0.0173,0.0194,0.0226,0.0265,0.0279,0.0305,0.0369,0.0416,0.0464,0.0561,0.0589,0.0657,0.0694,0.0691,0.0721,0.0678,0.0674,0.065,0.0587,0.0578,0.0548,0.054,0.0603,0.0602,0.0601,0.0601,0.06,0,0.0177,0.0194,0.024,0.0266,0.0284,0.0326,0.037,0.0423,0.049,0.06,0.0666,0.0719,0.0763,0.0764,0.0707,0.0655,0.0658,0.0588,0.0559,0.0559,0.055,0.0544,0.0538,0.0539,0.0538,0.0537,0.0537,0,0.0184,0.02,0.0229,0.0281,0.0324,0.0383,0.0454,0.0511,0.06,0.0673,0.0777,0.0811,0.0797,0.0749,0.0663,0.0618,0.0596,0.0567,0.0631,0.0551,0.0498,0.0489,0.0486,0.0529,0.0529,0.053,0.053,0.0531,0.0191,0.0211,0.0253,0.0304,0.0357,0.0445,0.0504,0.0592,0.0692,0.0803,0.0833,0.0848,0.08,0.0664,0.0607,0.0523,0.0534,0.0498,0.0501,0.0506,0.0489,0.0438,0.0451,0.0451,0.0452,0.0452,0.0452,0,0.0204,0.0232,0.0277,0.0346,0.041,0.0439,0.0568,0.0633,0.0748,0.0801,0.0855,0.0769,0.0709,0.0634,0.0498,0.044,0.0439,0.0417,0.0435,0.0442,0.0449,0.0431,0.0376,0.0376,0.0376,0.0376,0,0,0.0214,0.0251,0.0276,0.0377,0.0431,0.0528,0.0604,0.0694,0.075,0.0792,0.0769,0.0768,0.0689,0.0583,0.0513,0.044,0.0451,0.0418,0.0481,0.0516,0.0524,0.0492,0.0471,0,0,0,0,0]}],[{"header":{"parameterUnit":"m.s-1","parameterCategory":2,"la1":30.2991,"la2":30.254,"lo1":-89.0895,"lo2":-89.0444,"dy":0.0017,"dx":0.0017,"nx":28,"ny":28,"refTime":"2025-07-22T09:00:00:Z","depth":"4","parameterNumber":2,"parameterNumberName":"U-component_of_CURRENTS"},"data":[0,0,0,0,0,0,0,0,0,0,0,0,0,0,0,0,0,0,0,0,0,0,0,0,0,0,0,0,0,0,0,0,0,0,0,0,0,0,0,0,0,0,0,0,0,0,0,0,0,0,0,0,0,0,0,0,0,0,0.0372,0.0372,0,0.0359,0.0358,0.0358,0.036,0.0361,0.0361,0.0362,0.0358,0.0357,0.0356,0,0,0,0,0,0,0,0,0,0,0,0,0,0.0391,0.039,0.0372,0.0372,0.0372,0.0359,0.0358,0.0358,0.036,0.0361,0.0361,0.0362,0.0358,0.0357,0.0356,0,0,0,0,0,0,0,0,0,0,0,0,0,0.0378,0.039,0.0372,0.0374,0.0374,0.0359,0.0358,0.0358,0.036,0.0361,0.0361,0.0362,0.0358,0.0357,0.0356,0.0335,0,0,0.0354,0.0353,0,0,0,0,0,0,0,0,0.0378,0.0377,0.0373,0.0374,0.0374,0.0365,0.0364,0.0352,0.036,0.0362,0.0362,0.0363,0.0362,0.0361,0.0352,0.0335,0.0335,0.0353,0.0353,0.0353,0.0352,0,0,0,0,0,0,0,0.0379,0.0377,0.0363,0.0374,0.0374,0.0373,0.0372,0.0361,0.0355,0.0362,0.0363,0.0366,0.0362,0.0353,0.0352,0.0335,0.0354,0.0353,0.0352,0.0352,0.0352,0.0352,0,0,0,0,0,0,0.0387,0.0378,0.0364,0.0363,0.0382,0.0373,0.0371,0.0364,0.0355,0.0356,0.0365,0.0366,0.0354,0.0353,0.0352,0.0367,0.0353,0.0352,0.0351,0.0351,0.0352,0.0352,0,0,0,0,0,0,0.0387,0.0385,0.0364,0.0374,0.0371,0.0372,0.0364,0.0364,0.0373,0.0359,0.0359,0.0378,0.0355,0.0353,0.0351,0.0365,0.0351,0.0351,0.035,0.0351,0.0352,0.037,0,0,0,0,0,0,0.0387,0.0385,0.0388,0.0374,0.0371,0.0367,0.0364,0.0363,0.0374,0.0375,0.0369,0.0368,0.0355,0.0352,0.035,0.0364,0.035,0.035,0.0351,0.0352,0.0369,0.0372,0.0374,0,0,0,0,0,0.0388,0.0383,0.0388,0.0387,0.0373,0.0368,0.0366,0.0367,0.0374,0.0378,0.0371,0.0369,0.0358,0.0352,0.0349,0.0363,0.0349,0.035,0.0352,0.0368,0.0371,0.0374,0,0,0,0,0,0,0.0394,0.0382,0.0388,0.0381,0.0384,0.037,0.0374,0.0377,0.0374,0.0381,0.0367,0.0365,0.0363,0.0364,0.0357,0.0367,0.0357,0.0358,0.0371,0.0373,0.0376,0.038,0.0349,0,0,0,0,0,0.0398,0.0393,0.0387,0.0388,0.0387,0.0386,0.0387,0.0392,0.0385,0.0386,0.0382,0.0379,0.0362,0.037,0.0354,0.0362,0.0372,0.0373,0.0376,0.0378,0.038,0.0407,0.0412,0.0356,0.0356,0.0356,0,0,0.0401,0.0397,0.0395,0.039,0.039,0.0385,0.0388,0.0397,0.0396,0.0385,0.0388,0.0379,0.0362,0.0361,0.0364,0.0369,0.04,0.0379,0.0381,0.0382,0.0409,0.0414,0.0419,0.0357,0.0357,0.0357,0,0,0.0401,0.0403,0.0397,0.04,0.0409,0.0401,0.041,0.0409,0.0413,0.0414,0.04,0.0402,0.0394,0.0382,0.0373,0.0382,0.04,0.0392,0.0421,0.0447,0.0452,0.0456,0.0482,0.0488,0.0408,0.0408,0.0408,0,0.0412,0.0398,0.0398,0.0398,0.0398,0.041,0.0406,0.0406,0.041,0.0408,0.0422,0.041,0.0397,0.0388,0.0394,0.0386,0.0412,0.0409,0.0451,0.0455,0.0459,0.0484,0.0491,0.0409,0.0409,0.0409,0.0409,0,0.0402,0.0401,0.04,0.0396,0.0397,0.0401,0.0401,0.041,0.0421,0.0418,0.0426,0.0423,0.0424,0.0423,0.0409,0.0434,0.0446,0.0438,0.0443,0.0466,0.0491,0.0498,0.0411,0.0411,0.041,0.041,0,0,0.04,0.0392,0.0395,0.0392,0.0399,0.0394,0.0397,0.0389,0.0396,0.0417,0.0429,0.0415,0.044,0.0434,0.0438,0.0466,0.0512,0.0479,0.048,0.0504,0.0585,0.0463,0.0459,0.0526,0.0527,0.0528,0.0593,0,0.0395,0.0382,0.0383,0.0377,0.0366,0.0379,0.0371,0.0374,0.0393,0.041,0.0425,0.044,0.0439,0.0467,0.0489,0.0505,0.0531,0.0495,0.0559,0.0561,0.0449,0.0462,0.0532,0.0598,0.0599,0.06,0.0601,0,0.0384,0.0374,0.036,0.0352,0.0349,0.0354,0.0358,0.0362,0.0382,0.0402,0.0441,0.0465,0.0507,0.0511,0.0569,0.0557,0.0573,0.0586,0.0589,0.0471,0.045,0.0569,0.0614,0.0613,0.0612,0.0611,0.061,0,0.0367,0.0359,0.0344,0.0346,0.0337,0.0343,0.0347,0.036,0.0369,0.0427,0.0455,0.0506,0.0553,0.059,0.0612,0.0615,0.0668,0.067,0.0572,0.0565,0.065,0.0644,0.0702,0.0702,0.0702,0.0702,0.0702,0,0.0353,0.0348,0.0341,0.0338,0.0326,0.0333,0.0347,0.036,0.0396,0.0405,0.0468,0.0503,0.0581,0.0615,0.0632,0.0614,0.0686,0.0574,0.0568,0.0656,0.0651,0.0655,0.0649,0.0704,0.0704,0.0703,0.0703,0,0.0342,0.0338,0.0322,0.0316,0.0321,0.0318,0.0349,0.0347,0.0399,0.043,0.0459,0.0527,0.057,0.0606,0.0664,0.0625,0.0627,0.0596,0.0687,0.0687,0.0511,0.0506,0.0518,0.0514,0.0511,0.0508,0.0506,0,0.0329,0.0319,0.0312,0.0303,0.031,0.032,0.031,0.0348,0.0355,0.043,0.0429,0.05,0.0533,0.0533,0.0565,0.0574,0.0549,0.0553,0.0527,0.0496,0.0491,0.049,0.0489,0.0501,0.05,0.0499,0.0498,0,0.0306,0.0311,0.0304,0.0281,0.0273,0.0263,0.0272,0.0277,0.0313,0.0368,0.0405,0.0428,0.0452,0.0486,0.0477,0.0481,0.0557,0.0518,0.0526,0.0502,0.0476,0.0473,0.0476,0.0487,0.0488,0.0489,0.049,0,0.0295,0.0286,0.0276,0.0251,0.0235,0.0202,0.0216,0.022,0.0238,0.0317,0.0331,0.0392,0.046,0.0435,0.0431,0.0412,0.0405,0.0388,0.0402,0.0415,0.0339,0.0288,0.0235,0,0,0,0,0,0.0278,0.0264,0.024,0.0204,0.018,0.0175,0.0173,0.0186,0.0233,0.0235,0.0287,0.0306,0.0315,0.0348,0.0305,0.0348,0.0386,0.0291,0.037,0.0423,0.0436,0.035,0,0,0,0,0,0,0.0266,0.0256,0.0233,0.0163,0.0136,0.0103,0.0102,0.0129,0.014,0.0206,0.0221,0.0265,0.0285,0.0349,0.0303,0.0302,0.0332,0.0321,0.0318,0.0416,0.0428,0.0438,0.0354,0,0,0,0,0]},{"header":{"parameterUnit":"m.s-1","parameterCategory":2,"la1":30.2991,"la2":30.254,"lo1":-89.0895,"lo2":-89.0444,"dy":0.0017,"dx":0.0017,"nx":28,"ny":28,"refTime":"2025-07-22T09:00:00:Z","depth":"4","parameterNumber":3,"parameterNumberName":"V-component_of_CURRENTS"},"data":[0,0,0,0,0,0,0,0,0,0,0,0,0,0,0,0,0,0,0,0,0,0,0,0,0,0,0,0,0,0,0,0,0,0,0,0,0,0,0,0,0,0,0,0,0,0,0,0,0,0,0,0,0,0,0,0,0,0,0.0139,0.014,0,0.0173,0.0173,0.0173,0.0192,0.0192,0.0192,0.0192,0.0247,0.0248,0.0249,0,0,0,0,0,0,0,0,0,0,0,0,0,0.0098,0.0098,0.0139,0.014,0.014,0.0173,0.0173,0.0173,0.0192,0.0192,0.0192,0.0192,0.0246,0.0248,0.0249,0,0,0,0,0,0,0,0,0,0,0,0,0,0.0121,0.0098,0.0139,0.0154,0.0156,0.0172,0.0173,0.0173,0.0192,0.0192,0.0192,0.0192,0.0246,0.0248,0.025,0.0259,0,0,0.0256,0.0257,0,0,0,0,0,0,0,0,0.012,0.0123,0.0151,0.0153,0.0155,0.0179,0.0178,0.0203,0.0192,0.0178,0.0192,0.0193,0.0226,0.023,0.0235,0.0261,0.0264,0.0256,0.0257,0.0258,0.0259,0,0,0,0,0,0,0,0.0118,0.0121,0.0152,0.0152,0.0154,0.0161,0.0164,0.0183,0.0201,0.0179,0.018,0.0185,0.0227,0.0233,0.0236,0.0264,0.0256,0.0258,0.0259,0.026,0.0319,0.032,0,0,0,0,0,0,0.0115,0.012,0.0151,0.0153,0.0138,0.0161,0.0165,0.017,0.02,0.0205,0.0185,0.0186,0.0229,0.0234,0.0238,0.0277,0.0258,0.026,0.0261,0.0319,0.0319,0.032,0,0,0,0,0,0,0.0114,0.0117,0.015,0.0137,0.0142,0.0162,0.0168,0.0171,0.018,0.0204,0.0209,0.0191,0.0229,0.0235,0.0262,0.0278,0.0261,0.0263,0.0318,0.0319,0.032,0.0338,0,0,0,0,0,0,0.0112,0.0117,0.012,0.0137,0.0143,0.0163,0.0168,0.0172,0.0183,0.0184,0.0211,0.0216,0.023,0.0259,0.0264,0.0281,0.0264,0.0318,0.0319,0.0319,0.0337,0.0339,0.0341,0,0,0,0,0,0.0111,0.0119,0.012,0.0124,0.0147,0.0163,0.0167,0.0181,0.0183,0.0189,0.0209,0.0215,0.0267,0.0261,0.0267,0.0284,0.0318,0.0318,0.0319,0.0336,0.0339,0.0341,0,0,0,0,0,0,0.0105,0.0122,0.0124,0.0137,0.0149,0.0167,0.0175,0.0181,0.02,0.0204,0.0223,0.023,0.0259,0.0266,0.0259,0.0302,0.0292,0.0294,0.0303,0.0306,0.0308,0.0304,0.0266,0,0,0,0,0,0.0104,0.0113,0.0128,0.0138,0.0145,0.0158,0.0167,0.0175,0.0193,0.0201,0.0221,0.0242,0.0266,0.0281,0.0299,0.0325,0.0315,0.0338,0.034,0.0342,0.0342,0.033,0.0331,0.0322,0.0322,0.0322,0,0,0.0104,0.0114,0.0119,0.0137,0.0147,0.0164,0.0164,0.0178,0.0196,0.0205,0.0237,0.025,0.0273,0.0303,0.0316,0.0313,0.034,0.0343,0.0344,0.0343,0.0331,0.0332,0.0332,0.0323,0.0323,0.0323,0,0,0.0111,0.0117,0.0129,0.014,0.0157,0.0168,0.0171,0.0191,0.0204,0.0229,0.0244,0.0266,0.0298,0.0321,0.0336,0.0359,0.035,0.0364,0.0376,0.0365,0.0366,0.0366,0.0359,0.0358,0.0367,0.0367,0.0367,0,0.011,0.0127,0.0134,0.015,0.0164,0.017,0.0189,0.0204,0.023,0.0246,0.0241,0.0291,0.0308,0.0351,0.0359,0.0365,0.0353,0.0367,0.0367,0.0367,0.0367,0.036,0.0359,0.0368,0.0368,0.0368,0.0368,0,0.0127,0.0142,0.015,0.0173,0.0189,0.0204,0.0226,0.0243,0.0255,0.0269,0.0304,0.0323,0.0353,0.0361,0.0369,0.0387,0.0377,0.0369,0.036,0.0369,0.0361,0.036,0.0369,0.0369,0.0369,0.0369,0,0,0.0126,0.0156,0.016,0.0177,0.0203,0.022,0.0251,0.0283,0.0307,0.0321,0.035,0.0384,0.0385,0.0401,0.0413,0.0403,0.0395,0.0385,0.0384,0.0376,0.0367,0.035,0.0347,0.038,0.038,0.038,0.0363,0,0.0139,0.0171,0.0186,0.0221,0.0241,0.026,0.0291,0.0319,0.034,0.0367,0.0381,0.0413,0.0405,0.0422,0.0411,0.0402,0.0391,0.04,0.0361,0.036,0.0342,0.0345,0.0379,0.0362,0.0362,0.0361,0.0361,0,0.0153,0.0175,0.0209,0.0251,0.0263,0.0287,0.0336,0.0364,0.04,0.0416,0.0438,0.0447,0.0462,0.0439,0.042,0.0422,0.0396,0.0376,0.0375,0.0351,0.034,0.035,0.0359,0.0359,0.0359,0.0359,0.0359,0,0.0154,0.0194,0.0224,0.0237,0.0282,0.0308,0.0337,0.0379,0.0414,0.0449,0.0467,0.048,0.0491,0.0455,0.0422,0.0419,0.0378,0.0372,0.0333,0.0331,0.0344,0.0344,0.0345,0.0345,0.0345,0.0345,0.0345,0,0.0165,0.0188,0.0227,0.0244,0.0289,0.0317,0.0369,0.0399,0.0444,0.0483,0.0492,0.0512,0.0489,0.0469,0.0427,0.0376,0.0385,0.0334,0.0324,0.0353,0.0354,0.0343,0.0343,0.0344,0.0344,0.0345,0.0345,0,0.016,0.0183,0.0219,0.0269,0.029,0.0322,0.0394,0.0432,0.0466,0.0513,0.0526,0.054,0.0509,0.0475,0.0423,0.039,0.034,0.0318,0.0356,0.0349,0.03,0.0302,0.0278,0.0277,0.0276,0.0276,0.0275,0,0.0162,0.0178,0.0234,0.0263,0.0288,0.0342,0.0385,0.0441,0.0477,0.0526,0.0541,0.0537,0.0532,0.0445,0.0406,0.0331,0.0315,0.0299,0.0295,0.03,0.0293,0.0295,0.0297,0.0274,0.0274,0.0274,0.0274,0,0.0164,0.0181,0.0211,0.0267,0.0315,0.0374,0.0432,0.0457,0.0515,0.0544,0.0551,0.0529,0.049,0.0434,0.0379,0.0324,0.0316,0.0292,0.0293,0.0289,0.0295,0.0289,0.0292,0.0271,0.0272,0.0272,0.0272,0,0.0165,0.0183,0.0222,0.0274,0.0332,0.0389,0.0423,0.0463,0.0503,0.0543,0.0542,0.0512,0.0507,0.043,0.0376,0.0324,0.0309,0.0295,0.0295,0.0297,0.0305,0.0317,0.029,0,0,0,0,0,0.0168,0.0191,0.0233,0.029,0.0343,0.0386,0.0448,0.0477,0.0519,0.052,0.0534,0.0495,0.0433,0.0408,0.0349,0.0358,0.0298,0.0288,0.0282,0.0258,0.0261,0.0265,0,0,0,0,0,0,0.0172,0.0205,0.0227,0.0292,0.0334,0.0403,0.0446,0.0478,0.0474,0.05,0.0458,0.0473,0.0399,0.0455,0.0342,0.0331,0.0318,0.0266,0.0265,0.0257,0.0259,0.0261,0.0266,0,0,0,0,0]}]]